Location: Alma
(38.7220°N, 88.9090°W)
Time: 13:29:01
(UTC-06:00)

Vanguard 2 - Pass Details

Date: 21 November 2019
Orbit: 553 x 2938 km, 32.9° (Epoch: 07 December)

Event Time Altitude Azimuth Distance (km) Brightness Sun altitude
Rises 06:48:57 0° 232° (SW) 6,292 11.9 0.0°
Reaches altitude 10° 06:53:52 10° 227° (SW) 4,968 11.5 0.8°
Maximum altitude 07:05:53 42° 163° (SSE) 2,258 10.5 2.9°
Drops below altitude 10° 07:13:27 10° 96° (E) 3,161 12.1 4.2°
Sets 07:15:53 0° 89° (E) 3,865 12.3 4.6°
